TimeAKDT,TemperatureF,Dew PointF,Humidity,Sea Level PressureIn,VisibilityMPH,Wind Direction,Wind SpeedMPH,Gust SpeedMPH,PrecipitationIn,Events,Conditions,WindDirDegrees,DateUTC
12:53 AM,33.1,21.9,64,30.48,10.0,NE,12.7,-,N/A,,Scattered Clouds,40,2012-10-09 08:53:00
1:53 AM,33.1,21.9,64,30.48,10.0,NE,16.1,-,N/A,,Partly Cloudy,50,2012-10-09 09:53:00
2:53 AM,32.0,19.9,61,30.49,10.0,NNE,13.8,-,N/A,,Clear,30,2012-10-09 10:53:00
3:53 AM,32.0,18.0,56,30.48,10.0,WNW,3.5,-,N/A,,Scattered Clouds,300,2012-10-09 11:53:00
4:53 AM,30.9,18.0,59,30.48,10.0,North,3.5,-,N/A,,Scattered Clouds,360,2012-10-09 12:53:00
5:08 AM,30.2,17.6,60,30.47,10.0,Calm,Calm,-,N/A,,Scattered Clouds,0,2012-10-09 13:08:00
5:53 AM,32.0,18.0,56,30.47,10.0,North,15.0,23.0,N/A,,Scattered Clouds,10,2012-10-09 13:53:00
6:53 AM,32.0,17.1,54,30.46,10.0,NNE,19.6,-,N/A,,Partly Cloudy,30,2012-10-09 14:53:00
7:53 AM,32.0,18.0,56,30.46,10.0,North,16.1,-,N/A,,Partly Cloudy,10,2012-10-09 15:53:00
8:53 AM,32.0,18.0,56,30.46,10.0,NNE,19.6,25.3,N/A,,Partly Cloudy,30,2012-10-09 16:53:00
9:53 AM,32.0,17.1,54,30.45,10.0,NNE,23.0,-,N/A,,Scattered Clouds,20,2012-10-09 17:53:00
10:53 AM,32.0,18.0,56,30.45,10.0,NNE,23.0,31.1,N/A,,Scattered Clouds,30,2012-10-09 18:53:00
11:53 AM,34.0,18.0,52,30.45,10.0,NNE,20.7,29.9,N/A,,Scattered Clouds,30,2012-10-09 19:53:00
12:53 PM,36.0,19.9,52,30.45,10.0,NNE,18.4,26.5,N/A,,Scattered Clouds,30,2012-10-09 20:53:00
1:53 PM,37.0,21.0,52,30.45,10.0,NE,20.7,26.5,N/A,,Scattered Clouds,40,2012-10-09 21:53:00
2:53 PM,37.9,21.9,53,30.44,10.0,NE,17.3,24.2,N/A,,Scattered Clouds,50,2012-10-09 22:53:00
3:53 PM,39.0,21.9,50,30.43,10.0,NE,16.1,25.3,N/A,,Scattered Clouds,50,2012-10-09 23:53:00
4:53 PM,39.9,21.9,49,30.43,10.0,NE,17.3,-,N/A,,Scattered Clouds,40,2012-10-10 00:53:00
5:53 PM,39.0,21.9,50,30.43,10.0,NE,16.1,-,N/A,,Scattered Clouds,40,2012-10-10 01:53:00
6:53 PM,37.9,21.9,53,30.41,10.0,NNE,17.3,-,N/A,,Scattered Clouds,30,2012-10-10 02:53:00
7:53 PM,35.1,21.9,59,30.40,10.0,NNE,18.4,-,N/A,,Scattered Clouds,30,2012-10-10 03:53:00
8:53 PM,34.0,21.9,61,30.40,10.0,NE,17.3,-,N/A,,Partly Cloudy,40,2012-10-10 04:53:00
9:53 PM,34.0,21.0,59,30.42,10.0,NNE,15.0,-,N/A,,Clear,30,2012-10-10 05:53:00
10:53 PM,33.1,21.0,61,30.41,10.0,NNE,15.0,-,N/A,,Clear,30,2012-10-10 06:53:00
11:53 PM,33.1,19.9,59,30.41,10.0,NE,15.0,23.0,N/A,,Clear,40,2012-10-10 07:53:00